This is the latest recevied weather packets stored in our database for station/object KF7SOJ. If no packets are shown the sender has not sent any weather packets the latest 10 day(s).
| Time | Temp. | Humidity | Pressure | Rain* | Wind** | Luminosity | Snow |
|---|---|---|---|---|---|---|---|
| 1777984346 | 2.78° C | 62% | 933.4 hPa | 0 mm | - | 40 W/m² | - |
| 1777984042 | 2.78° C | 62% | 933.2 hPa | 0 mm | - | 29 W/m² | - |
| 1777983740 | 2.78° C | 63% | 933.3 hPa | 0 mm | - | 25 W/m² | - |
| 1777983436 | 2.78° C | 63% | 933.2 hPa | 0 mm | - | 20 W/m² | - |
| 1777983133 | 2.22° C | 64% | 933.2 hPa | 0 mm | - | 14 W/m² | - |
| 1777982829 | 2.22° C | 64% | 933.2 hPa | 0 mm | - | 9 W/m² | - |
| 1777982526 | 2.22° C | 65% | 933 hPa | 0 mm | - | 6 W/m² | - |
| 1777982224 | 1.67° C | 66% | 933.3 hPa | 0 mm | - | 3 W/m² | - |
| 1777981923 | 1.67° C | 66% | 933.3 hPa | 0 mm | - | 2 W/m² | - |
| 1777981620 | 1.67° C | 66% | 933.2 hPa | 0 mm | - | 1 W/m² | - |
| 1777981316 | 1.67° C | 67% | 933.2 hPa | 0 mm | - | 0 W/m² | - |
| 1777981012 | 1.67° C | 67% | 933.3 hPa | 0 mm | - | 0 W/m² | - |
| 1777980709 | 1.67° C | 65% | 933.2 hPa | 0 mm | - | 0 W/m² | - |
| 1777980405 | 1.67° C | 65% | 933 hPa | 0 mm | - | 0 W/m² | - |
| 1777980104 | 1.67° C | 66% | 933.1 hPa | 0 mm | - | 0 W/m² | - |
| 1777979802 | 1.67° C | 66% | 933.2 hPa | 0 mm | - | 0 W/m² | - |
| 1777979499 | 1.67° C | 65% | 933.2 hPa | 0 mm | - | 0 W/m² | - |
| 1777979195 | 1.67° C | 65% | 933.2 hPa | 0 mm | - | 0 W/m² | - |
| 1777978893 | 1.67° C | 65% | 933.1 hPa | 0 mm | - | 0 W/m² | - |
| 1777978589 | 1.67° C | 65% | 933.1 hPa | 0 mm | - | 0 W/m² | - |
| 1777978285 | 1.67° C | 66% | 933.2 hPa | 0 mm | - | 0 W/m² | - |
| 1777977982 | 1.67° C | 66% | 933.2 hPa | 0 mm | - | 0 W/m² | - |
| 1777977680 | 2.22° C | 65% | 933.2 hPa | 0 mm | - | 0 W/m² | - |
| 1777977376 | 2.22° C | 65% | 933.3 hPa | 0 mm | - | 0 W/m² | - |
| 1777977073 | 1.67° C | 65% | 933.3 hPa | 0 mm | - | 0 W/m² | - |
* Rain latest hour (hover to see other rain measurements)
** Current wind speed in m/s (hover to see current wind gust speed)